Location: ????
(32.1228°N, 34.8377°E)
Time: 03:13:11
(UTC+00:00)

Cosmos 2016 Rocket - Pass Details

Date: 21 September 2020
Orbit: 946 x 1001 km, 83.0° (Epoch: 23 October)

Event Time Altitude Azimuth Distance (km) Brightness Sun altitude
Rises 02:44:44 0° 353° (N) 3,626 7.0 -10.0°
Reaches altitude 10° 02:47:14 10° 353° (N) 2,674 6.3 -9.5°
Maximum altitude 02:53:21 87° 268° (W) 952 4.0 -8.2°
Drops below altitude 10° 02:59:25 10° 177° (S) 2,659 6.3 -7.0°
Sets 03:01:54 0° 177° (S) 3,604 7.0 -6.4°
